Location: Schommer Observatory
(40.5200°N, 74.4500°W)
Time: 10:06:38
(UTC-05:00)

Envisat - Pass Details

Date: 13 October 2017
Orbit: 764 x 766 km, 98.2° (Epoch: 16 December)

Event Time Altitude Azimuth Distance (km) Brightness Sun altitude
Exits shadow 19:16:50 13° 68° (ENE) 2,077 4.7 -11.5°
Maximum altitude 19:17:23 14° 61° (ENE) 2,065 4.7 -11.6°
Drops below altitude 10° 19:19:48 10° 32° (NNE) 2,312 5.2 -12.1°
Sets 19:23:16 0° 7° (N) 3,244 6.2 -12.7°
